Weather History for KMEB - November, 2012

Change the Weather History Date:

Saturday, November 3, 2012

  Actual Average (KLBT) Record (KLBT)
Temperature  
Mean Temperature 49 °F 58 °F  
Max Temperature 66 °F 71 °F 81 °F (2001)
Min Temperature 32 °F 45 °F 27 °F (2014)
Degree Days  
Heating Degree Days 16 8  
Month to date heating degree days 24  
Since 1 July heating degree days 156  
Cooling Degree Days 0 1  
Month to date cooling degree days 3  
Year to date cooling degree days 1897  
Moisture  
Dew Point 33 °F    
Average Humidity 64    
Maximum Humidity 93    
Minimum Humidity 25    
Precipitation  
Precipitation 0.00 in 0.08 in 0.11 in (2008)
Month to date precipitation 0.23  
Year to date precipitation 37.99  
Sea Level Pressure  
Sea Level Pressure 30.06 in    
Wind  
Wind Speed 2 mph (NNW)    
Max Wind Speed 12 mph    
Max Gust Speed 16 mph    
Visibility 10 miles    
Events      
T = Trace of Precipitation, MM = Missing Value Source: NWS Daily Summary

Daily Weather History Graph

Daily Weather History Graph

Search for Another Location

Airport or City:

Trip Planner

Search our weather history database for the weather conditions in past years. The results will help you decide how hot, cold, wet, or windy it might be!

Date:

Astronomy

Nov. 03, 2012 Rise Set
Actual Time 7:40 AM EDT 6:21 PM EDT
Civil Twilight 7:14 AM EDT 6:47 PM EDT
Nautical Twilight 6:44 AM EDT 7:17 PM EDT
Astronomical Twilight 6:14 AM EDT 7:46 PM EDT
Moon 10:04 PM EDT (11/3) 11:39 AM EDT (11/3)
Length of Visible Light 11h 33m
Length of Day
10h 40m
Waning Gibbous, 80% of the Moon is Illuminated
Nov 3
Waning Gibbous
Nov 6
Last Quarter
Nov 13
New
Nov 20
First Quarter
Nov 28
Full

Hourly Weather History & Observations

Time (EDT) Temp. Windchill Dew Point Humidity Pressure Visibility Wind Dir Wind Speed Gust Speed Precip Events Conditions
12:52 AM 37.0 °F - 35.1 °F 93% 30.00 in 10.0 mi Calm Calm - N/A   Clear
1:52 AM 37.0 °F - 35.1 °F 93% 30.01 in 9.0 mi Calm Calm - N/A   Clear
2:52 AM 35.1 °F - 33.1 °F 92% 30.01 in 10.0 mi Calm Calm - N/A   Clear
3:52 AM 34.0 °F - 32.0 °F 92% 30.01 in 10.0 mi Calm Calm - N/A   Clear
4:52 AM 33.1 °F - 30.0 °F 89% 30.03 in 10.0 mi Calm Calm - N/A   Clear
5:52 AM 32.0 °F 28.7 °F 30.0 °F 92% 30.05 in 10.0 mi North 3.5 mph - N/A   Clear
6:52 AM 32.0 °F - 28.9 °F 88% 30.07 in 10.0 mi Calm Calm - N/A   Clear
7:52 AM 32.0 °F 28.7 °F 30.0 °F 92% 30.09 in 6.0 mi NNE 3.5 mph - N/A   Clear
8:52 AM 37.9 °F - 34.0 °F 86% 30.11 in 10.0 mi Calm Calm - N/A   Clear
9:52 AM 50.0 °F - 35.1 °F 57% 30.12 in 10.0 mi Calm Calm - N/A   Clear
10:52 AM 55.0 °F - 30.0 °F 38% 30.13 in 10.0 mi Calm Calm - N/A   Clear
11:52 AM 57.9 °F - 30.0 °F 35% 30.12 in 10.0 mi Variable 4.6 mph - N/A   Clear
12:52 PM 62.1 °F - 28.0 °F 28% 30.09 in 10.0 mi Variable 5.8 mph - N/A   Clear
1:52 PM 63.0 °F - 28.9 °F 28% 30.07 in 10.0 mi West 8.1 mph - N/A   Clear
2:52 PM 64.9 °F - 28.0 °F 25% 30.05 in 10.0 mi WNW 4.6 mph 16.1 mph N/A   Clear
3:52 PM 66.0 °F - 30.0 °F 26% 30.04 in 10.0 mi WNW 11.5 mph - N/A   Clear
4:52 PM 64.0 °F - 30.0 °F 28% 30.04 in 10.0 mi WNW 4.6 mph - N/A   Clear
5:52 PM 62.1 °F - 32.0 °F 32% 30.04 in 10.0 mi Calm Calm - N/A   Clear
6:52 PM 54.0 °F - 36.0 °F 51% 30.04 in 10.0 mi Calm Calm - N/A   Clear
7:52 PM 48.0 °F - 37.0 °F 66% 30.05 in 10.0 mi Calm Calm - N/A   Clear
8:52 PM 46.9 °F - 37.9 °F 71% 30.05 in 10.0 mi Calm Calm - N/A   Clear
9:52 PM 44.1 °F - 37.0 °F 76% 30.05 in 10.0 mi Calm Calm - N/A   Clear
10:52 PM 42.1 °F 39.2 °F 37.0 °F 82% 30.05 in 10.0 mi ENE 4.6 mph - N/A   Clear
11:52 PM 44.1 °F 42.5 °F 36.0 °F 73% 30.05 in 10.0 mi East 3.5 mph - N/A   Clear